カタログに戻る

CZ-4C DEB

運用中LEO
NORAD 45484·DEBRIS·🇨🇳 China

打ち上げ Apr 10, 2018 から Jiuquan Satellite Launch Center

Loading…

次のパス (今後24時間)

TLE

最新Source: Space-Track

元期: Sep 14, 2026, 10:38 UTC

1 45484U 18034M   26257.44369022 -.00000077  00000-0  17648-4 0  9998
2 45484  63.3859 253.3850 0273560   9.0785 351.5043 13.42946604379390

AllMySatでCZ-4C DEBをリアルタイム追跡

Download on the App Store